Regional Weather Roundup
Issued by NWS Cleveland, OH

Home | Current Version | Previous Version | Graphics & Text | Print | Product List | Glossary Off
Versions: 1 2 3 4 5 6 7 8 9 10 11 12 13 14 15 16 17 18 19 20 21 22 23 24 25 26 27 28 29 30 31 32 33 34 35 36 37 38 39 40 41 42 43 44 45 46 47 48 49 50

000
ASUS41 KCLE 021310
RWRCLE
OHIO REGIONAL WEATHER ROUNDUP
NATIONAL WEATHER SERVICE CLEVELAND, OH
800 AM EST MON MAR 02 2015

NOTE: "FAIR" INDICATES FEW OR NO CLOUDS BELOW 12,000 FEET WITH NO
SIGNIFICANT WEATHER AND/OR OBSTRUCTIONS TO VISIBILITY.

OHZ001>008-015>018-024>027-034-035-043-044-021400-
   NORTHWEST OHIO

CITY           SKY/WX    TMP DP  RH WIND       PRES   REMARKS
DEFIANCE       MOCLDY    12   9  87 SW5       30.45R FOG     WCI   4
FINDLAY        PTCLDY    13   9  84 W12       30.42R FOG     WCI  -1
TOLEDO EXPRESS PTCLDY    10   7  87 W12       30.41R FOG     WCI  -5
TOLEDO EXEC    CLEAR     13   9  84 SW8       30.43R FOG     WCI   2
LIMA           MOCLDY    12   9  87 SW7       30.43R FOG     WCI   1
$$

OHZ009>014-019>023-028>033-038-089-021400-
   NORTHEAST OHIO

CITY           SKY/WX    TMP DP  RH WIND       PRES   REMARKS
CLE-HOPKINS    PTCLDY    20  14  77 W13       30.42R WCI   7
CLE-LAKEFRONT  MOSUNNY   18  13  80 W13       30.39R WCI   5
CUY CO. ARPT   MOSUNNY   23  18  80 W16G25    30.38R WCI  10
LORAIN-ELYRIA  CLOUDY    19  14  81 W10       30.40R WCI   7
ASHTABULA      PTSUNNY   21  12  68 W14       30.34R WCI   8
AKRON-CANTON   LGT SNOW  20  14  77 W14       30.36R WCI   7
WOOSTER        PTSUNNY   18  13  80 W8        30.39R WCI   8
MANSFIELD      PTCLDY    16  13  88 W9        30.38R WCI   4
YOUNGSTOWN     LGT SNOW  21  16  81 W12       30.34R WCI   9
$$

OHZ042-051>053-060>062-070>072-077>081-021400-
  SOUTHWEST OHIO

CITY           SKY/WX    TMP DP  RH WIND       PRES   REMARKS
CINC-COVINGTON CLOUDY    21  15  78 NW5       30.49R WCI  15
CINC-LUNKEN    PTCLDY    22  15  75 N6        30.53R WCI  14
HAMILTON       PTCLDY    20  13  74 NW3       30.51R
DAYTON         CLOUDY    16  11  80 CALM      30.46R HAZE
WRIGHT-PAT AFB CLOUDY    16  11  82 W3        30.48R
DAYTON GENERAL MOCLDY    19  14  81 CALM      30.46R
WILMINGTON     MOCLDY    20  13  74 CALM      30.46R
$$

OHZ036-037-039>041-045>050-054>059-063>069-073>076-082>088-021400-
  CENTRAL AND SOUTHEAST OHIO

CITY           SKY/WX    TMP DP  RH WIND       PRES   REMARKS
COLUMBUS       CLOUDY    19  13  77 W5        30.45R WCI  12
OSU AIRPORT    MOCLDY    16  12  84 W7        30.45R WCI   6
BOLTON FIELD   CLEAR     18  14  86 W5        30.45R WCI  11
RICKENBACK AFB MOCLDY    20  14  80 W7        30.47R WCI  11
NEWARK         MOCLDY    20  13  74 W5        30.44R WCI  13
MARION         PTCLDY    14  10  84 W7        30.43R FOG     WCI   4
LANCASTER      MOCLDY    22  16  78 W3        30.46R HAZE
ZANESVILLE     PTSUNNY   22  14  71 NW7       30.44R WCI  13
NEW PHILLY     PTSUNNY   23  16  74 CALM      30.42R HAZE
$$


USA.gov is the U.S. government's official web portal to all federal, state and local government web resources and services.